Time,TemperatureF,DewpointF,PressureIn,WindDirection,WindDirectionDegrees,WindSpeedMPH,WindSpeedGustMPH,Humidity,HourlyPrecipIn,Conditions,Clouds,dailyrainin,SoftwareType,DateUTC
2013-06-15 00:01:00,60.4,46.4,29.78,SW,225,0.0,0.0,60,0.00,,,0.00,WeatherCatV1.15B25,2013-06-15 07:01:00,
2013-06-15 00:06:00,60.6,46.6,29.77,SW,225,0.0,0.0,60,0.00,,,0.00,WeatherCatV1.15B25,2013-06-15 07:06:00,
2013-06-15 00:11:00,60.6,46.2,29.78,SW,224,0.0,0.0,59,0.00,,,0.00,WeatherCatV1.15B25,2013-06-15 07:11:00,
2013-06-15 00:16:00,60.5,46.1,29.77,SW,225,0.0,0.0,59,0.00,,,0.00,WeatherCatV1.15B25,2013-06-15 07:16:00,
2013-06-15 00:21:00,60.6,46.2,29.77,SW,224,0.0,0.0,59,0.00,,,0.00,WeatherCatV1.15B25,2013-06-15 07:21:00,
2013-06-15 00:26:00,60.3,45.9,29.77,SW,225,0.0,0.0,59,0.00,,,0.00,WeatherCatV1.15B25,2013-06-15 07:26:00,
2013-06-15 00:31:00,60.1,46.2,29.77,SW,224,0.0,0.0,60,0.00,,,0.00,WeatherCatV1.15B25,2013-06-15 07:31:00,
2013-06-15 00:36:00,60.1,45.7,29.77,SW,224,0.0,0.0,59,0.00,,,0.00,WeatherCatV1.15B25,2013-06-15 07:36:00,
2013-06-15 00:41:00,60.5,46.1,29.77,SW,224,0.0,0.0,59,0.00,,,0.00,WeatherCatV1.15B25,2013-06-15 07:41:00,
2013-06-15 00:46:00,60.7,45.8,29.77,SW,225,0.0,0.0,58,0.00,,,0.00,WeatherCatV1.15B25,2013-06-15 07:46:00,
2013-06-15 00:51:00,60.8,45.9,29.77,SW,224,0.0,0.0,58,0.00,,,0.00,WeatherCatV1.15B25,2013-06-15 07:51:00,
2013-06-15 00:56:00,60.7,46.3,29.77,SW,225,0.0,0.0,59,0.00,,,0.00,WeatherCatV1.15B25,2013-06-15 07:56:00,
2013-06-15 01:01:00,60.1,46.2,29.77,SW,224,0.0,0.0,60,0.00,,,0.00,WeatherCatV1.15B25,2013-06-15 08:01:00,
2013-06-15 01:06:00,59.6,46.1,29.77,SW,225,0.0,0.0,61,0.00,,,0.00,WeatherCatV1.15B25,2013-06-15 08:06:00,
2013-06-15 01:11:00,59.3,46.3,29.77,SW,224,0.0,0.0,62,0.00,,,0.00,WeatherCatV1.15B25,2013-06-15 08:11:00,
2013-06-15 01:16:00,58.8,46.2,29.77,SW,225,0.0,0.0,63,0.00,,,0.00,WeatherCatV1.15B25,2013-06-15 08:16:00,
2013-06-15 01:21:00,58.5,46.4,29.77,SW,224,0.0,0.0,64,0.00,,,0.00,WeatherCatV1.15B25,2013-06-15 08:21:00,
2013-06-15 01:26:00,58.3,46.2,29.76,SW,225,0.0,0.0,64,0.00,,,0.00,WeatherCatV1.15B25,2013-06-15 08:26:00,
2013-06-15 01:31:00,58.2,46.5,29.76,SW,224,0.0,0.0,65,0.00,,,0.00,WeatherCatV1.15B25,2013-06-15 08:31:00,
2013-06-15 01:36:00,57.9,46.2,29.76,SW,225,0.0,0.0,65,0.00,,,0.00,WeatherCatV1.15B25,2013-06-15 08:36:00,
2013-06-15 01:41:00,57.9,46.2,29.76,SW,225,0.0,0.0,65,0.00,,,0.00,WeatherCatV1.15B25,2013-06-15 08:41:00,
2013-06-15 01:46:00,58.1,46.4,29.76,SW,224,0.0,0.0,65,0.00,,,0.00,WeatherCatV1.15B25,2013-06-15 08:46:00,
2013-06-15 01:51:00,57.9,46.2,29.76,SW,225,0.0,0.0,65,0.00,,,0.00,WeatherCatV1.15B25,2013-06-15 08:51:00,
2013-06-15 01:56:00,57.0,46.2,29.76,SW,224,0.0,0.0,67,0.00,,,0.00,WeatherCatV1.15B25,2013-06-15 08:56:00,
2013-06-15 02:01:00,56.6,45.8,29.76,SW,225,0.0,0.0,67,0.00,,,0.00,WeatherCatV1.15B25,2013-06-15 09:01:00,
2013-06-15 02:06:00,56.6,45.8,29.76,SW,224,0.0,0.0,67,0.00,,,0.00,WeatherCatV1.15B25,2013-06-15 09:06:00,
2013-06-15 02:11:00,56.8,46.0,29.76,SW,224,0.0,0.0,67,0.00,,,0.00,WeatherCatV1.15B25,2013-06-15 09:11:00,
2013-06-15 02:16:00,56.9,46.1,29.76,SW,225,0.0,0.0,67,0.00,,,0.00,WeatherCatV1.15B25,2013-06-15 09:16:00,
2013-06-15 02:21:00,56.9,46.1,29.76,SW,225,0.0,0.0,67,0.00,,,0.00,WeatherCatV1.15B25,2013-06-15 09:21:00,
2013-06-15 02:26:00,56.8,46.0,29.76,SW,225,0.0,0.0,67,0.00,,,0.00,WeatherCatV1.15B25,2013-06-15 09:26:00,
2013-06-15 02:31:00,56.6,45.8,29.76,SW,224,0.0,0.0,67,0.00,,,0.00,WeatherCatV1.15B25,2013-06-15 09:31:00,
2013-06-15 02:36:00,56.4,46.0,29.75,SW,224,0.0,0.0,68,0.00,,,0.00,WeatherCatV1.15B25,2013-06-15 09:36:00,
2013-06-15 02:41:00,56.3,45.9,29.76,SW,224,0.0,0.0,68,0.00,,,0.00,WeatherCatV1.15B25,2013-06-15 09:41:00,
2013-06-15 02:46:00,56.1,45.7,29.76,SW,224,0.0,0.0,68,0.00,,,0.00,WeatherCatV1.15B25,2013-06-15 09:46:00,
2013-06-15 02:51:00,56.1,46.1,29.75,SW,224,0.0,0.0,69,0.00,,,0.00,WeatherCatV1.15B25,2013-06-15 09:51:00,
2013-06-15 02:56:00,55.9,45.9,29.75,SW,225,0.0,0.0,69,0.00,,,0.00,WeatherCatV1.15B25,2013-06-15 09:56:00,
2013-06-15 03:01:00,55.2,45.6,29.75,SW,225,0.0,0.0,70,0.00,,,0.00,WeatherCatV1.15B25,2013-06-15 10:01:00,
2013-06-15 03:06:00,54.6,45.4,29.75,SW,225,0.0,0.0,71,0.00,,,0.00,WeatherCatV1.15B25,2013-06-15 10:06:00,
2013-06-15 03:11:00,54.4,45.6,29.75,SW,225,0.0,0.0,72,0.00,,,0.00,WeatherCatV1.15B25,2013-06-15 10:11:00,
2013-06-15 03:16:00,54.3,45.5,29.76,SW,225,0.0,0.0,72,0.00,,,0.00,WeatherCatV1.15B25,2013-06-15 10:16:00,
2013-06-15 03:21:00,54.0,45.5,29.76,SW,224,0.0,0.0,73,0.00,,,0.00,WeatherCatV1.15B25,2013-06-15 10:21:00,
2013-06-15 03:26:00,53.8,45.3,29.75,SW,225,0.0,0.0,73,0.00,,,0.00,WeatherCatV1.15B25,2013-06-15 10:26:00,
2013-06-15 03:31:00,53.7,45.6,29.76,SW,225,0.0,0.0,74,0.00,,,0.00,WeatherCatV1.15B25,2013-06-15 10:31:00,
2013-06-15 03:36:00,53.7,45.6,29.76,SW,225,0.0,0.0,74,0.00,,,0.00,WeatherCatV1.15B25,2013-06-15 10:36:00,
2013-06-15 03:41:00,54.0,45.5,29.75,SW,224,0.0,0.0,73,0.00,,,0.00,WeatherCatV1.15B25,2013-06-15 10:41:00,
2013-06-15 03:46:00,54.1,45.6,29.75,SW,225,0.0,0.0,73,0.00,,,0.00,WeatherCatV1.15B25,2013-06-15 10:46:00,
2013-06-15 03:51:00,54.2,45.4,29.76,SW,224,0.0,0.0,72,0.00,,,0.00,WeatherCatV1.15B25,2013-06-15 10:51:00,
2013-06-15 03:56:00,54.2,45.4,29.76,SW,224,0.0,0.0,72,0.00,,,0.00,WeatherCatV1.15B25,2013-06-15 10:56:00,
2013-06-15 04:01:00,54.3,45.5,29.76,SW,225,0.0,0.0,72,0.00,,,0.00,WeatherCatV1.15B25,2013-06-15 11:01:00,
2013-06-15 04:06:00,54.7,45.9,29.76,SW,224,0.0,0.0,72,0.00,,,0.00,WeatherCatV1.15B25,2013-06-15 11:06:00,
2013-06-15 04:11:00,54.9,45.7,29.76,SW,225,0.0,0.0,71,0.00,,,0.00,WeatherCatV1.15B25,2013-06-15 11:11:00,
2013-06-15 04:16:00,55.1,45.5,29.76,SW,225,0.0,0.0,70,0.00,,,0.00,WeatherCatV1.15B25,2013-06-15 11:16:00,
2013-06-15 04:21:00,55.4,45.0,29.76,SW,225,0.0,0.0,68,0.00,,,0.00,WeatherCatV1.15B25,2013-06-15 11:21:00,
2013-06-15 04:26:00,55.7,45.3,29.76,SW,225,0.0,0.0,68,0.00,,,0.00,WeatherCatV1.15B25,2013-06-15 11:26:00,
2013-06-15 04:31:00,56.0,44.8,29.76,SW,225,0.0,0.0,66,0.00,,,0.00,WeatherCatV1.15B25,2013-06-15 11:31:00,
2013-06-15 04:36:00,56.3,45.1,29.76,SW,225,0.0,0.0,66,0.00,,,0.00,WeatherCatV1.15B25,2013-06-15 11:36:00,
2013-06-15 04:41:00,56.4,44.8,29.76,SW,225,0.0,0.0,65,0.00,,,0.00,WeatherCatV1.15B25,2013-06-15 11:41:00,
2013-06-15 04:46:00,56.5,44.9,29.76,SW,224,0.0,0.0,65,0.00,,,0.00,WeatherCatV1.15B25,2013-06-15 11:46:00,
2013-06-15 04:51:00,56.1,45.3,29.76,SW,225,0.0,0.0,67,0.00,,,0.00,WeatherCatV1.15B25,2013-06-15 11:51:00,
2013-06-15 04:56:00,55.5,44.7,29.76,SW,225,0.0,0.0,67,0.00,,,0.00,WeatherCatV1.15B25,2013-06-15 11:56:00,
2013-06-15 05:01:00,55.2,44.8,29.76,SW,225,0.0,0.0,68,0.00,,,0.00,WeatherCatV1.15B25,2013-06-15 12:01:00,
2013-06-15 05:06:00,55.1,44.7,29.76,SW,225,0.0,0.0,68,0.00,,,0.00,WeatherCatV1.15B25,2013-06-15 12:06:00,
2013-06-15 05:11:00,55.0,44.6,29.76,SW,225,0.0,0.0,68,0.00,,,0.00,WeatherCatV1.15B25,2013-06-15 12:11:00,
2013-06-15 05:16:00,54.6,45.0,29.77,SW,225,0.0,0.0,70,0.00,,,0.00,WeatherCatV1.15B25,2013-06-15 12:16:00,
2013-06-15 05:21:00,54.2,44.6,29.77,SW,225,0.0,0.0,70,0.00,,,0.00,WeatherCatV1.15B25,2013-06-15 12:21:00,
2013-06-15 05:26:00,54.0,44.8,29.77,SW,225,0.0,0.0,71,0.00,,,0.00,WeatherCatV1.15B25,2013-06-15 12:26:00,
2013-06-15 05:31:00,54.1,44.9,29.77,SW,225,0.0,0.0,71,0.00,,,0.00,WeatherCatV1.15B25,2013-06-15 12:31:00,
2013-06-15 05:36:00,54.4,44.8,29.77,SW,225,0.0,0.0,70,0.00,,,0.00,WeatherCatV1.15B25,2013-06-15 12:36:00,
2013-06-15 05:41:00,54.2,44.6,29.77,SW,225,0.0,0.0,70,0.00,,,0.00,WeatherCatV1.15B25,2013-06-15 12:41:00,
2013-06-15 05:46:00,53.9,44.7,29.77,SW,225,0.0,0.0,71,0.00,,,0.00,WeatherCatV1.15B25,2013-06-15 12:46:00,
2013-06-15 05:51:00,53.9,45.1,29.77,SW,225,0.0,1.0,72,0.00,,,0.00,WeatherCatV1.15B25,2013-06-15 12:51:00,
2013-06-15 05:56:00,53.7,44.5,29.77,SW,225,0.0,0.0,71,0.00,,,0.00,WeatherCatV1.15B25,2013-06-15 12:56:00,
2013-06-15 06:01:00,53.7,44.9,29.77,SW,225,0.0,0.0,72,0.00,,,0.00,WeatherCatV1.15B25,2013-06-15 13:01:00,
2013-06-15 06:06:00,53.7,44.9,29.77,SW,225,0.0,0.0,72,0.00,,,0.00,WeatherCatV1.15B25,2013-06-15 13:06:00,
2013-06-15 06:11:00,53.7,44.9,29.78,SW,225,0.0,0.0,72,0.00,,,0.00,WeatherCatV1.15B25,2013-06-15 13:11:00,
2013-06-15 06:16:00,53.7,44.9,29.78,SW,224,0.0,0.0,72,0.00,,,0.00,WeatherCatV1.15B25,2013-06-15 13:16:00,
2013-06-15 06:21:00,53.5,44.7,29.78,SW,225,0.0,0.0,72,0.00,,,0.00,WeatherCatV1.15B25,2013-06-15 13:21:00,
2013-06-15 06:26:00,53.4,45.0,29.78,SW,225,0.0,0.0,73,0.00,,,0.00,WeatherCatV1.15B25,2013-06-15 13:26:00,
2013-06-15 06:31:00,53.5,45.1,29.78,SW,225,0.0,0.0,73,0.00,,,0.00,WeatherCatV1.15B25,2013-06-15 13:31:00,
2013-06-15 06:36:00,53.7,45.3,29.78,SW,225,0.0,0.0,73,0.00,,,0.00,WeatherCatV1.15B25,2013-06-15 13:36:00,
2013-06-15 06:41:00,54.2,45.4,29.78,SW,225,0.0,0.0,72,0.00,,,0.00,WeatherCatV1.15B25,2013-06-15 13:41:00,
2013-06-15 06:46:00,54.8,45.6,29.78,SW,225,0.0,0.0,71,0.00,,,0.00,WeatherCatV1.15B25,2013-06-15 13:46:00,
2013-06-15 06:51:00,54.8,45.9,29.78,SW,224,0.0,0.0,72,0.00,,,0.00,WeatherCatV1.15B25,2013-06-15 13:51:00,
2013-06-15 06:56:00,54.6,46.1,29.79,SW,225,0.0,0.0,73,0.00,,,0.00,WeatherCatV1.15B25,2013-06-15 13:56:00,
2013-06-15 07:01:00,54.6,46.5,29.79,SW,225,0.0,0.0,74,0.00,,,0.00,WeatherCatV1.15B25,2013-06-15 14:01:00,
2013-06-15 07:06:00,54.7,46.6,29.79,SW,225,0.0,0.0,74,0.00,,,0.00,WeatherCatV1.15B25,2013-06-15 14:06:00,
2013-06-15 07:11:00,55.0,46.5,29.79,SW,225,0.0,0.0,73,0.00,,,0.00,WeatherCatV1.15B25,2013-06-15 14:11:00,
2013-06-15 07:16:00,55.5,47.0,29.79,SW,225,0.0,0.0,73,0.00,,,0.00,WeatherCatV1.15B25,2013-06-15 14:16:00,
2013-06-15 07:21:00,56.0,47.5,29.79,SW,225,0.0,0.0,73,0.00,,,0.00,WeatherCatV1.15B25,2013-06-15 14:21:00,
2013-06-15 07:26:00,56.4,48.2,29.79,SW,225,0.0,0.0,74,0.00,,,0.00,WeatherCatV1.15B25,2013-06-15 14:26:00,
2013-06-15 07:31:00,57.0,48.8,29.79,SW,225,0.0,0.0,74,0.00,,,0.00,WeatherCatV1.15B25,2013-06-15 14:31:00,
2013-06-15 07:36:00,57.7,48.7,29.79,SW,225,0.0,0.0,72,0.00,,,0.00,WeatherCatV1.15B25,2013-06-15 14:36:00,
2013-06-15 07:41:00,58.5,48.7,29.79,SW,225,0.0,0.0,70,0.00,,,0.00,WeatherCatV1.15B25,2013-06-15 14:41:00,
2013-06-15 07:46:00,59.1,49.3,29.79,SW,225,0.0,0.0,70,0.00,,,0.00,WeatherCatV1.15B25,2013-06-15 14:46:00,
2013-06-15 07:51:00,59.8,50.0,29.79,SW,225,0.0,0.0,70,0.00,,,0.00,WeatherCatV1.15B25,2013-06-15 14:51:00,
2013-06-15 07:56:00,60.3,50.5,29.79,SW,225,0.0,0.0,70,0.00,,,0.00,WeatherCatV1.15B25,2013-06-15 14:56:00,
2013-06-15 08:01:00,60.9,50.3,29.80,SW,225,0.0,0.0,68,0.00,,,0.00,WeatherCatV1.15B25,2013-06-15 15:01:00,
2013-06-15 08:06:00,61.7,50.6,29.80,SW,225,0.0,0.0,67,0.00,,,0.00,WeatherCatV1.15B25,2013-06-15 15:06:00,
2013-06-15 08:11:00,62.4,50.9,29.80,SW,225,0.0,0.0,66,0.00,,,0.00,WeatherCatV1.15B25,2013-06-15 15:11:00,
2013-06-15 08:16:00,63.0,50.2,29.80,SW,225,0.0,0.0,63,0.00,,,0.00,WeatherCatV1.15B25,2013-06-15 15:16:00,
2013-06-15 08:21:00,63.7,50.9,29.80,SW,225,0.0,0.0,63,0.00,,,0.00,WeatherCatV1.15B25,2013-06-15 15:21:00,
2013-06-15 08:26:00,64.4,51.1,29.80,SW,225,0.0,0.0,62,0.00,,,0.00,WeatherCatV1.15B25,2013-06-15 15:26:00,
2013-06-15 08:31:00,64.9,51.1,29.80,SW,225,0.0,0.0,61,0.00,,,0.00,WeatherCatV1.15B25,2013-06-15 15:31:00,
2013-06-15 08:36:00,65.5,50.8,29.80,SW,225,0.0,0.0,59,0.00,,,0.00,WeatherCatV1.15B25,2013-06-15 15:36:00,
2013-06-15 08:41:00,66.1,51.3,29.80,SW,225,0.0,0.0,59,0.00,,,0.00,WeatherCatV1.15B25,2013-06-15 15:41:00,
2013-06-15 08:46:00,66.7,51.0,29.80,SW,225,0.0,0.0,57,0.00,,,0.00,WeatherCatV1.15B25,2013-06-15 15:46:00,
2013-06-15 08:51:00,67.2,51.4,29.80,SW,225,0.0,0.0,57,0.00,,,0.00,WeatherCatV1.15B25,2013-06-15 15:51:00,
2013-06-15 08:56:00,67.8,49.5,29.80,SW,224,0.0,0.0,52,0.00,,,0.00,WeatherCatV1.15B25,2013-06-15 15:56:00,
2013-06-15 09:01:00,68.4,50.6,29.80,SW,225,0.0,0.0,53,0.00,,,0.00,WeatherCatV1.15B25,2013-06-15 16:01:00,
2013-06-15 09:06:00,69.2,48.1,29.80,SW,235,0.0,1.0,47,0.00,,,0.00,WeatherCatV1.15B25,2013-06-15 16:06:00,
2013-06-15 09:11:00,70.0,49.9,29.80,SW,235,0.0,0.0,49,0.00,,,0.00,WeatherCatV1.15B25,2013-06-15 16:11:00,
2013-06-15 09:16:00,70.6,49.4,29.80,SW,233,0.0,0.0,47,0.00,,,0.00,WeatherCatV1.15B25,2013-06-15 16:16:00,
2013-06-15 09:21:00,71.0,48.6,29.81,SW,235,0.0,0.0,45,0.00,,,0.00,WeatherCatV1.15B25,2013-06-15 16:21:00,
2013-06-15 09:26:00,71.6,49.7,29.81,SW,233,0.0,0.0,46,0.00,,,0.00,WeatherCatV1.15B25,2013-06-15 16:26:00,
2013-06-15 09:31:00,72.0,45.0,29.81,SW,233,0.0,1.0,38,0.00,,,0.00,WeatherCatV1.15B25,2013-06-15 16:31:00,
2013-06-15 09:36:00,72.4,46.0,29.81,SW,235,0.0,0.0,39,0.00,,,0.00,WeatherCatV1.15B25,2013-06-15 16:36:00,
2013-06-15 09:41:00,72.8,42.8,29.81,SW,228,0.0,1.0,34,0.00,,,0.00,WeatherCatV1.15B25,2013-06-15 16:41:00,
2013-06-15 09:46:00,73.3,44.7,29.81,SW,228,0.0,0.0,36,0.00,,,0.00,WeatherCatV1.15B25,2013-06-15 16:46:00,
2013-06-15 09:51:00,73.3,41.6,29.81,SW,228,0.0,0.0,32,0.00,,,0.00,WeatherCatV1.15B25,2013-06-15 16:51:00,
2013-06-15 09:56:00,73.5,41.0,29.81,SW,228,0.0,1.0,31,0.00,,,0.00,WeatherCatV1.15B25,2013-06-15 16:56:00,
2013-06-15 10:01:00,73.9,40.5,29.81,SW,228,0.0,0.0,30,0.00,,,0.00,WeatherCatV1.15B25,2013-06-15 17:01:00,
2013-06-15 10:06:00,74.3,40.0,29.81,WSW,256,1.0,1.0,29,0.00,,,0.00,WeatherCatV1.15B25,2013-06-15 17:06:00,
2013-06-15 10:11:00,74.8,41.3,29.81,WSW,256,0.0,0.0,30,0.00,,,0.00,WeatherCatV1.15B25,2013-06-15 17:11:00,
2013-06-15 10:16:00,75.6,40.2,29.81,ESE,102,1.0,1.0,28,0.00,,,0.00,WeatherCatV1.15B25,2013-06-15 17:16:00,
2013-06-15 10:21:00,76.1,39.7,29.81,NNE,18,1.0,2.0,27,0.00,,,0.00,WeatherCatV1.15B25,2013-06-15 17:21:00,
2013-06-15 10:26:00,77.0,40.4,29.81,NNE,31,0.0,0.0,27,0.00,,,0.00,WeatherCatV1.15B25,2013-06-15 17:26:00,
2013-06-15 10:31:00,78.1,41.4,29.81,WSW,245,0.0,2.0,27,0.00,,,0.00,WeatherCatV1.15B25,2013-06-15 17:31:00,
2013-06-15 10:36:00,78.3,41.5,29.81,West,266,1.0,2.0,27,0.00,,,0.00,WeatherCatV1.15B25,2013-06-15 17:36:00,
2013-06-15 10:41:00,78.1,43.2,29.81,WSW,238,1.0,3.0,29,0.00,,,0.00,WeatherCatV1.15B25,2013-06-15 17:41:00,
2013-06-15 10:46:00,78.3,41.5,29.81,South,186,1.0,3.0,27,0.00,,,0.00,WeatherCatV1.15B25,2013-06-15 17:46:00,
2013-06-15 10:51:00,79.2,42.3,29.81,West,269,1.0,2.0,27,0.00,,,0.00,WeatherCatV1.15B25,2013-06-15 17:51:00,
2013-06-15 10:56:00,80.0,43.9,29.81,West,273,0.0,0.0,28,0.00,,,0.00,WeatherCatV1.15B25,2013-06-15 17:56:00,
2013-06-15 11:01:00,81.0,43.8,29.81,West,272,0.0,1.0,27,0.00,,,0.00,WeatherCatV1.15B25,2013-06-15 18:01:00,
2013-06-15 11:06:00,81.1,44.9,29.81,West,264,1.0,4.0,28,0.00,,,0.00,WeatherCatV1.15B25,2013-06-15 18:06:00,
2013-06-15 11:11:00,80.7,46.4,29.81,West,259,0.0,1.0,30,0.00,,,0.00,WeatherCatV1.15B25,2013-06-15 18:11:00,
2013-06-15 11:16:00,80.7,46.4,29.81,West,259,1.0,3.0,30,0.00,,,0.00,WeatherCatV1.15B25,2013-06-15 18:16:00,
2013-06-15 11:21:00,80.4,46.1,29.81,SSW,210,0.0,3.0,30,0.00,,,0.00,WeatherCatV1.15B25,2013-06-15 18:21:00,
2013-06-15 11:26:00,80.7,45.5,29.81,West,260,1.0,1.0,29,0.00,,,0.00,WeatherCatV1.15B25,2013-06-15 18:26:00,
2013-06-15 11:31:00,81.5,46.2,29.81,South,176,0.0,2.0,29,0.00,,,0.00,WeatherCatV1.15B25,2013-06-15 18:31:00,
2013-06-15 11:36:00,81.6,45.3,29.81,WSW,253,0.0,1.0,28,0.00,,,0.00,WeatherCatV1.15B25,2013-06-15 18:36:00,
2013-06-15 11:41:00,81.8,44.5,29.81,West,271,2.0,2.0,27,0.00,,,0.00,WeatherCatV1.15B25,2013-06-15 18:41:00,
2013-06-15 11:46:00,81.7,46.3,29.81,West,264,1.0,3.0,29,0.00,,,0.00,WeatherCatV1.15B25,2013-06-15 18:46:00,
2013-06-15 11:51:00,82.0,47.5,29.82,WSW,246,1.0,2.0,30,0.00,,,0.00,WeatherCatV1.15B25,2013-06-15 18:51:00,
2013-06-15 11:56:00,82.9,45.5,29.82,WSW,242,1.0,2.0,27,0.00,,,0.00,WeatherCatV1.15B25,2013-06-15 18:56:00,
2013-06-15 12:01:00,83.3,46.8,29.82,SW,225,1.0,1.0,28,0.00,,,0.00,WeatherCatV1.15B25,2013-06-15 19:01:00,
2013-06-15 12:06:00,83.5,46.0,29.82,West,273,1.0,2.0,27,0.00,,,0.00,WeatherCatV1.15B25,2013-06-15 19:06:00,
2013-06-15 12:11:00,83.4,45.9,29.81,WSW,253,3.0,4.0,27,0.00,,,0.00,WeatherCatV1.15B25,2013-06-15 19:11:00,
2013-06-15 12:17:00,83.6,46.1,29.82,WNW,288,1.0,2.0,27,0.00,,,0.00,WeatherCatV1.15B25,2013-06-15 19:17:00,
2013-06-15 12:22:00,83.0,45.5,29.82,WSW,253,1.0,2.0,27,0.00,,,0.00,WeatherCatV1.15B25,2013-06-15 19:22:00,
2013-06-15 12:27:00,82.9,46.4,29.82,West,260,2.0,3.0,28,0.00,,,0.00,WeatherCatV1.15B25,2013-06-15 19:27:00,
2013-06-15 12:32:00,82.8,46.3,29.82,SW,228,2.0,2.0,28,0.00,,,0.00,WeatherCatV1.15B25,2013-06-15 19:32:00,
2013-06-15 12:37:00,83.1,45.6,29.81,West,274,1.0,2.0,27,0.00,,,0.00,WeatherCatV1.15B25,2013-06-15 19:37:00,
2013-06-15 12:42:00,82.5,47.0,29.81,West,262,3.0,3.0,29,0.00,,,0.00,WeatherCatV1.15B25,2013-06-15 19:42:00,
2013-06-15 12:47:00,82.3,42.9,29.82,WSW,238,4.0,4.0,25,0.00,,,0.00,WeatherCatV1.15B25,2013-06-15 19:47:00,
2013-06-15 12:52:00,82.3,44.9,29.82,West,259,1.0,4.0,27,0.00,,,0.00,WeatherCatV1.15B25,2013-06-15 19:52:00,
2013-06-15 12:57:00,83.0,45.5,29.82,West,266,1.0,3.0,27,0.00,,,0.00,WeatherCatV1.15B25,2013-06-15 19:57:00,
2013-06-15 13:02:00,83.3,43.8,29.81,SE,143,4.0,4.0,25,0.00,,,0.00,WeatherCatV1.15B25,2013-06-15 20:02:00,
2013-06-15 13:07:00,84.0,44.4,29.82,West,264,2.0,2.0,25,0.00,,,0.00,WeatherCatV1.15B25,2013-06-15 20:07:00,
2013-06-15 13:12:00,83.0,41.4,29.82,WSW,256,3.0,5.0,23,0.00,,,0.00,WeatherCatV1.15B25,2013-06-15 20:12:00,
2013-06-15 13:17:00,82.5,43.1,29.82,West,269,1.0,1.0,25,0.00,,,0.00,WeatherCatV1.15B25,2013-06-15 20:17:00,
2013-06-15 13:22:00,83.2,43.7,29.81,West,264,3.0,3.0,25,0.00,,,0.00,WeatherCatV1.15B25,2013-06-15 20:22:00,
2013-06-15 13:27:00,82.8,40.0,29.81,WNW,302,1.0,1.0,22,0.00,,,0.00,WeatherCatV1.15B25,2013-06-15 20:27:00,
2013-06-15 13:32:00,83.6,41.9,29.81,West,273,2.0,2.0,23,0.00,,,0.00,WeatherCatV1.15B25,2013-06-15 20:32:00,
2013-06-15 13:37:00,82.9,40.1,29.82,WSW,246,2.0,4.0,22,0.00,,,0.00,WeatherCatV1.15B25,2013-06-15 20:37:00,
2013-06-15 13:42:00,83.4,38.1,29.81,SE,132,1.0,1.0,20,0.00,,,0.00,WeatherCatV1.15B25,2013-06-15 20:42:00,
2013-06-15 13:47:00,84.8,37.9,29.81,South,188,2.0,2.0,19,0.00,,,0.00,WeatherCatV1.15B25,2013-06-15 20:47:00,
2013-06-15 13:52:00,85.2,36.9,29.82,WSW,252,0.0,2.0,18,0.00,,,0.00,WeatherCatV1.15B25,2013-06-15 20:52:00,
2013-06-15 13:57:00,85.0,35.3,29.81,WSW,256,2.0,6.0,17,0.00,,,0.00,WeatherCatV1.15B25,2013-06-15 20:57:00,
2013-06-15 14:02:00,83.8,35.8,29.82,West,276,2.0,4.0,18,0.00,,,0.00,WeatherCatV1.15B25,2013-06-15 21:02:00,
2013-06-15 14:07:00,83.6,35.6,29.81,West,263,1.0,1.0,18,0.00,,,0.00,WeatherCatV1.15B25,2013-06-15 21:07:00,
2013-06-15 14:12:00,83.9,32.9,29.81,WSW,243,2.0,5.0,16,0.00,,,0.00,WeatherCatV1.15B25,2013-06-15 21:12:00,
2013-06-15 14:15:00,84.6,33.4,29.81,WSW,245,1.0,4.0,16,0.00,,,0.00,WeatherCatV1.15B25,2013-06-15 21:15:00,
2013-06-15 14:20:00,85.0,30.5,29.81,SSW,192,2.0,3.0,14,0.00,,,0.00,WeatherCatV1.15B25,2013-06-15 21:20:00,
2013-06-15 14:25:00,84.3,33.2,29.81,WSW,247,2.0,2.0,16,0.00,,,0.00,WeatherCatV1.15B25,2013-06-15 21:25:00,
2013-06-15 14:30:00,84.1,34.6,29.81,WSW,250,2.0,4.0,17,0.00,,,0.00,WeatherCatV1.15B25,2013-06-15 21:30:00,
2013-06-15 14:35:00,84.5,30.1,29.81,WSW,245,2.0,4.0,14,0.00,,,0.00,WeatherCatV1.15B25,2013-06-15 21:35:00,
2013-06-15 14:40:00,84.6,28.3,29.81,SSW,210,1.0,4.0,13,0.00,,,0.00,WeatherCatV1.15B25,2013-06-15 21:40:00,
2013-06-15 14:45:00,84.9,28.6,29.81,South,174,2.0,2.0,13,0.00,,,0.00,WeatherCatV1.15B25,2013-06-15 21:45:00,
2013-06-15 14:50:00,84.6,31.8,29.81,South,189,1.0,5.0,15,0.00,,,0.00,WeatherCatV1.15B25,2013-06-15 21:50:00,
2013-06-15 14:55:00,84.3,31.6,29.81,South,175,2.0,3.0,15,0.00,,,0.00,WeatherCatV1.15B25,2013-06-15 21:55:00,
2013-06-15 15:00:00,84.3,33.2,29.81,SSW,201,2.0,4.0,16,0.00,,,0.00,WeatherCatV1.15B25,2013-06-15 22:00:00,
2013-06-15 15:05:00,84.1,36.0,29.81,SSW,192,1.0,1.0,18,0.00,,,0.00,WeatherCatV1.15B25,2013-06-15 22:05:00,
2013-06-15 15:10:00,84.2,36.1,29.81,SW,232,1.0,3.0,18,0.00,,,0.00,WeatherCatV1.15B25,2013-06-15 22:10:00,
2013-06-15 15:15:00,83.8,32.8,29.81,WSW,255,1.0,3.0,16,0.00,,,0.00,WeatherCatV1.15B25,2013-06-15 22:15:00,
2013-06-15 15:20:00,83.3,32.4,29.81,WSW,255,2.0,4.0,16,0.00,,,0.00,WeatherCatV1.15B25,2013-06-15 22:20:00,
2013-06-15 15:25:00,82.3,34.5,29.81,WSW,258,2.0,5.0,18,0.00,,,0.00,WeatherCatV1.15B25,2013-06-15 22:25:00,
2013-06-15 15:30:00,81.8,32.7,29.81,WNW,298,2.0,2.0,17,0.00,,,0.00,WeatherCatV1.15B25,2013-06-15 22:30:00,
2013-06-15 15:35:00,82.0,34.3,29.81,West,273,2.0,4.0,18,0.00,,,0.00,WeatherCatV1.15B25,2013-06-15 22:35:00,
2013-06-15 15:40:00,81.9,31.3,29.81,West,270,3.0,4.0,16,0.00,,,0.00,WeatherCatV1.15B25,2013-06-15 22:40:00,
2013-06-15 15:45:00,81.7,34.1,29.81,West,272,2.0,3.0,18,0.00,,,0.00,WeatherCatV1.15B25,2013-06-15 22:45:00,
2013-06-15 15:50:00,81.7,34.1,29.81,West,269,2.0,5.0,18,0.00,,,0.00,WeatherCatV1.15B25,2013-06-15 22:50:00,
2013-06-15 15:55:00,81.6,35.3,29.81,West,260,2.0,2.0,19,0.00,,,0.00,WeatherCatV1.15B25,2013-06-15 22:55:00,
2013-06-15 16:00:00,82.0,35.7,29.81,West,267,1.0,2.0,19,0.00,,,0.00,WeatherCatV1.15B25,2013-06-15 23:00:00,
2013-06-15 16:05:00,81.9,34.2,29.80,West,263,1.0,4.0,18,0.00,,,0.00,WeatherCatV1.15B25,2013-06-15 23:05:00,
2013-06-15 16:10:00,81.5,35.2,29.80,West,262,2.0,2.0,19,0.00,,,0.00,WeatherCatV1.15B25,2013-06-15 23:10:00,
2013-06-15 16:15:00,81.6,36.6,29.80,SW,233,2.0,2.0,20,0.00,,,0.00,WeatherCatV1.15B25,2013-06-15 23:15:00,
2013-06-15 16:20:00,81.6,36.6,29.80,WSW,253,2.0,3.0,20,0.00,,,0.00,WeatherCatV1.15B25,2013-06-15 23:20:00,
2013-06-15 16:25:00,81.8,38.0,29.80,SSW,209,1.0,0.0,21,0.00,,,0.00,WeatherCatV1.15B25,2013-06-15 23:25:00,
2013-06-15 16:30:00,82.0,38.2,29.80,SW,229,1.0,4.0,21,0.00,,,0.00,WeatherCatV1.15B25,2013-06-15 23:30:00,
2013-06-15 16:35:00,82.0,38.2,29.80,SW,220,2.0,2.0,21,0.00,,,0.00,WeatherCatV1.15B25,2013-06-15 23:35:00,
2013-06-15 16:40:00,82.0,37.0,29.80,SW,234,2.0,3.0,20,0.00,,,0.00,WeatherCatV1.15B25,2013-06-15 23:40:00,
2013-06-15 16:45:00,81.9,40.4,29.80,WSW,255,2.0,3.0,23,0.00,,,0.00,WeatherCatV1.15B25,2013-06-15 23:45:00,
2013-06-15 16:50:00,81.3,38.8,29.80,West,263,2.0,5.0,22,0.00,,,0.00,WeatherCatV1.15B25,2013-06-15 23:50:00,
2013-06-15 16:55:00,81.0,38.6,29.80,WSW,245,2.0,3.0,22,0.00,,,0.00,WeatherCatV1.15B25,2013-06-15 23:55:00,
2013-06-15 17:00:00,81.1,38.6,29.80,SW,236,2.0,2.0,22,0.00,,,0.00,WeatherCatV1.15B25,2013-06-16 00:00:00,
2013-06-15 17:05:00,80.8,36.0,29.80,West,262,2.0,2.0,20,0.00,,,0.00,WeatherCatV1.15B25,2013-06-16 00:05:00,
2013-06-15 17:10:00,81.1,38.6,29.80,SW,219,2.0,2.0,22,0.00,,,0.00,WeatherCatV1.15B25,2013-06-16 00:10:00,
2013-06-15 17:15:00,81.2,39.8,29.81,SW,234,2.0,3.0,23,0.00,,,0.00,WeatherCatV1.15B25,2013-06-16 00:15:00,
2013-06-15 17:20:00,81.1,38.6,29.81,SW,231,2.0,3.0,22,0.00,,,0.00,WeatherCatV1.15B25,2013-06-16 00:20:00,
2013-06-15 17:25:00,81.0,38.6,29.81,WSW,254,2.0,2.0,22,0.00,,,0.00,WeatherCatV1.15B25,2013-06-16 00:25:00,
2013-06-15 17:30:00,81.0,38.6,29.81,WSW,250,1.0,1.0,22,0.00,,,0.00,WeatherCatV1.15B25,2013-06-16 00:30:00,
2013-06-15 17:35:00,81.2,38.7,29.80,SSW,202,1.0,3.0,22,0.00,,,0.00,WeatherCatV1.15B25,2013-06-16 00:35:00,
2013-06-15 17:40:00,80.7,35.9,29.80,WSW,247,2.0,2.0,20,0.00,,,0.00,WeatherCatV1.15B25,2013-06-16 00:40:00,
2013-06-15 17:45:00,80.6,39.4,29.80,WSW,251,2.0,3.0,23,0.00,,,0.00,WeatherCatV1.15B25,2013-06-16 00:45:00,
2013-06-15 17:50:00,80.7,35.9,29.80,WSW,254,2.0,2.0,20,0.00,,,0.00,WeatherCatV1.15B25,2013-06-16 00:50:00,
2013-06-15 17:55:00,80.7,38.3,29.80,SW,217,2.0,2.0,22,0.00,,,0.00,WeatherCatV1.15B25,2013-06-16 00:55:00,
2013-06-15 18:00:00,81.0,36.1,29.80,SW,231,2.0,2.0,20,0.00,,,0.00,WeatherCatV1.15B25,2013-06-16 01:00:00,
2013-06-15 18:05:00,81.1,37.5,29.80,WSW,240,1.0,3.0,21,0.00,,,0.00,WeatherCatV1.15B25,2013-06-16 01:05:00,
2013-06-15 18:10:00,81.2,38.7,29.80,WSW,249,1.0,2.0,22,0.00,,,0.00,WeatherCatV1.15B25,2013-06-16 01:10:00,
2013-06-15 18:15:00,81.1,37.5,29.80,WSW,258,1.0,3.0,21,0.00,,,0.00,WeatherCatV1.15B25,2013-06-16 01:15:00,
2013-06-15 18:20:00,80.7,35.9,29.80,West,265,1.0,2.0,20,0.00,,,0.00,WeatherCatV1.15B25,2013-06-16 01:20:00,
2013-06-15 18:25:00,80.6,38.2,29.80,SSW,210,1.0,1.0,22,0.00,,,0.00,WeatherCatV1.15B25,2013-06-16 01:25:00,
2013-06-15 18:30:00,80.6,33.2,29.80,South,179,1.0,1.0,18,0.00,,,0.00,WeatherCatV1.15B25,2013-06-16 01:30:00,
2013-06-15 18:35:00,80.6,33.2,29.80,SSE,150,1.0,0.0,18,0.00,,,0.00,WeatherCatV1.15B25,2013-06-16 01:35:00,
2013-06-15 18:40:00,80.6,34.5,29.81,South,176,0.0,1.0,19,0.00,,,0.00,WeatherCatV1.15B25,2013-06-16 01:40:00,
2013-06-15 18:45:00,80.5,33.1,29.81,SE,146,0.0,0.0,18,0.00,,,0.00,WeatherCatV1.15B25,2013-06-16 01:45:00,
2013-06-15 18:50:00,80.5,37.0,29.81,ESE,113,0.0,1.0,21,0.00,,,0.00,WeatherCatV1.15B25,2013-06-16 01:50:00,
2013-06-15 18:55:00,80.1,35.4,29.81,South,169,0.0,2.0,20,0.00,,,0.00,WeatherCatV1.15B25,2013-06-16 01:55:00,
2013-06-15 19:00:00,79.8,33.9,29.81,SSW,213,0.0,0.0,19,0.00,,,0.00,WeatherCatV1.15B25,2013-06-16 02:00:00,
2013-06-15 19:05:00,79.6,35.0,29.81,SSW,200,0.0,2.0,20,0.00,,,0.00,WeatherCatV1.15B25,2013-06-16 02:05:00,
2013-06-15 19:10:00,79.4,34.8,29.81,SW,225,0.0,1.0,20,0.00,,,0.00,WeatherCatV1.15B25,2013-06-16 02:10:00,
2013-06-15 19:15:00,79.2,33.4,29.81,SSE,161,0.0,0.0,19,0.00,,,0.00,WeatherCatV1.15B25,2013-06-16 02:15:00,
2013-06-15 19:20:00,79.0,36.9,29.81,SE,137,0.0,0.0,22,0.00,,,0.00,WeatherCatV1.15B25,2013-06-16 02:20:00,
2013-06-15 19:25:00,78.8,36.7,29.81,SE,131,0.0,0.0,22,0.00,,,0.00,WeatherCatV1.15B25,2013-06-16 02:25:00,
2013-06-15 19:30:00,78.5,37.6,29.81,SE,129,0.0,0.0,23,0.00,,,0.00,WeatherCatV1.15B25,2013-06-16 02:30:00,
2013-06-15 19:35:00,78.4,39.7,29.81,SE,131,0.0,0.0,25,0.00,,,0.00,WeatherCatV1.15B25,2013-06-16 02:35:00,
2013-06-15 19:40:00,78.4,38.6,29.81,SE,137,0.0,0.0,24,0.00,,,0.00,WeatherCatV1.15B25,2013-06-16 02:40:00,
2013-06-15 19:45:00,78.1,38.4,29.81,SE,140,0.0,0.0,24,0.00,,,0.00,WeatherCatV1.15B25,2013-06-16 02:45:00,
2013-06-15 19:50:00,77.6,37.9,29.81,SE,138,0.0,1.0,24,0.00,,,0.00,WeatherCatV1.15B25,2013-06-16 02:50:00,
2013-06-15 19:55:00,77.2,38.6,29.81,SE,125,0.0,0.0,25,0.00,,,0.00,WeatherCatV1.15B25,2013-06-16 02:55:00,
2013-06-15 20:00:00,76.8,39.3,29.81,ESE,121,0.0,0.0,26,0.00,,,0.00,WeatherCatV1.15B25,2013-06-16 03:00:00,
2013-06-15 20:05:00,76.2,38.8,29.82,ESE,119,0.0,0.0,26,0.00,,,0.00,WeatherCatV1.15B25,2013-06-16 03:05:00,
2013-06-15 20:10:00,75.5,38.2,29.81,ESE,119,0.0,0.0,26,0.00,,,0.00,WeatherCatV1.15B25,2013-06-16 03:10:00,
2013-06-15 20:15:00,75.0,38.7,29.82,ESE,119,0.0,0.0,27,0.00,,,0.00,WeatherCatV1.15B25,2013-06-16 03:15:00,
2013-06-15 20:20:00,74.5,39.2,29.81,ESE,118,0.0,0.0,28,0.00,,,0.00,WeatherCatV1.15B25,2013-06-16 03:20:00,
2013-06-15 20:25:00,73.9,40.5,29.82,ESE,118,0.0,0.0,30,0.00,,,0.00,WeatherCatV1.15B25,2013-06-16 03:25:00,
2013-06-15 20:30:00,73.3,39.1,29.82,ESE,118,0.0,0.0,29,0.00,,,0.00,WeatherCatV1.15B25,2013-06-16 03:30:00,
2013-06-15 20:35:00,72.8,38.7,29.82,ESE,118,0.0,0.0,29,0.00,,,0.00,WeatherCatV1.15B25,2013-06-16 03:35:00,
2013-06-15 20:40:00,72.2,39.9,29.82,ESE,118,0.0,0.0,31,0.00,,,0.00,WeatherCatV1.15B25,2013-06-16 03:40:00,
2013-06-15 20:45:00,71.6,41.7,29.82,ESE,118,0.0,0.0,34,0.00,,,0.00,WeatherCatV1.15B25,2013-06-16 03:45:00,
2013-06-15 20:50:00,70.8,44.6,29.82,ESE,118,0.0,0.0,39,0.00,,,0.00,WeatherCatV1.15B25,2013-06-16 03:50:00,
2013-06-15 20:55:00,69.9,44.5,29.82,ESE,118,0.0,0.0,40,0.00,,,0.00,WeatherCatV1.15B25,2013-06-16 03:55:00,
2013-06-15 21:00:00,69.4,43.4,29.83,ESE,118,0.0,0.0,39,0.00,,,0.00,WeatherCatV1.15B25,2013-06-16 04:00:00,
2013-06-15 21:05:00,69.1,42.4,29.83,ESE,118,0.0,0.0,38,0.00,,,0.00,WeatherCatV1.15B25,2013-06-16 04:05:00,
2013-06-15 21:10:00,68.8,42.2,29.83,ESE,118,0.0,0.0,38,0.00,,,0.00,WeatherCatV1.15B25,2013-06-16 04:10:00,
2013-06-15 21:15:00,68.6,41.3,29.83,ESE,119,0.0,0.0,37,0.00,,,0.00,WeatherCatV1.15B25,2013-06-16 04:15:00,
2013-06-15 21:20:00,68.6,42.0,29.83,ESE,119,0.0,0.0,38,0.00,,,0.00,WeatherCatV1.15B25,2013-06-16 04:20:00,
2013-06-15 21:25:00,68.3,41.7,29.84,ESE,119,0.0,0.0,38,0.00,,,0.00,WeatherCatV1.15B25,2013-06-16 04:25:00,
2013-06-15 21:30:00,68.0,43.4,29.84,ESE,119,0.0,0.0,41,0.00,,,0.00,WeatherCatV1.15B25,2013-06-16 04:30:00,
2013-06-15 21:35:00,67.7,43.8,29.84,ESE,119,0.0,0.0,42,0.00,,,0.00,WeatherCatV1.15B25,2013-06-16 04:35:00,
2013-06-15 21:40:00,67.2,43.9,29.84,ESE,119,0.0,0.0,43,0.00,,,0.00,WeatherCatV1.15B25,2013-06-16 04:40:00,
2013-06-15 21:45:00,67.2,42.7,29.85,ESE,119,0.0,0.0,41,0.00,,,0.00,WeatherCatV1.15B25,2013-06-16 04:45:00,
2013-06-15 21:50:00,67.5,43.0,29.85,ESE,119,0.0,0.0,41,0.00,,,0.00,WeatherCatV1.15B25,2013-06-16 04:50:00,
2013-06-15 21:55:00,67.5,43.0,29.85,ESE,119,0.0,0.0,41,0.00,,,0.00,WeatherCatV1.15B25,2013-06-16 04:55:00,
2013-06-15 22:00:00,67.1,43.2,29.85,ESE,119,0.0,0.0,42,0.00,,,0.00,WeatherCatV1.15B25,2013-06-16 05:00:00,
2013-06-15 22:05:00,66.6,43.4,29.85,ESE,119,0.0,0.0,43,0.00,,,0.00,WeatherCatV1.15B25,2013-06-16 05:05:00,
2013-06-15 22:10:00,65.9,43.4,29.86,ESE,119,0.0,0.0,44,0.00,,,0.00,WeatherCatV1.15B25,2013-06-16 05:10:00,
2013-06-15 22:15:00,65.5,43.0,29.86,ESE,119,0.0,0.0,44,0.00,,,0.00,WeatherCatV1.15B25,2013-06-16 05:15:00,
2013-06-15 22:20:00,65.2,42.7,29.86,ESE,119,0.0,0.0,44,0.00,,,0.00,WeatherCatV1.15B25,2013-06-16 05:20:00,
2013-06-15 22:25:00,65.0,42.5,29.86,ESE,119,0.0,0.0,44,0.00,,,0.00,WeatherCatV1.15B25,2013-06-16 05:25:00,
2013-06-15 22:30:00,64.7,42.9,29.86,ESE,119,0.0,0.0,45,0.00,,,0.00,WeatherCatV1.15B25,2013-06-16 05:30:00,
2013-06-15 22:35:00,64.4,43.2,29.86,ESE,119,0.0,0.0,46,0.00,,,0.00,WeatherCatV1.15B25,2013-06-16 05:35:00,
2013-06-15 22:40:00,63.8,42.6,29.86,ESE,119,0.0,0.0,46,0.00,,,0.00,WeatherCatV1.15B25,2013-06-16 05:40:00,
2013-06-15 22:45:00,63.3,42.7,29.87,ESE,119,0.0,0.0,47,0.00,,,0.00,WeatherCatV1.15B25,2013-06-16 05:45:00,
2013-06-15 22:50:00,62.9,42.9,29.87,ESE,119,0.0,0.0,48,0.00,,,0.00,WeatherCatV1.15B25,2013-06-16 05:50:00,
2013-06-15 22:55:00,62.5,43.6,29.86,ESE,119,0.0,0.0,50,0.00,,,0.00,WeatherCatV1.15B25,2013-06-16 05:55:00,
2013-06-15 23:00:00,62.5,43.6,29.86,ESE,119,0.0,0.0,50,0.00,,,0.00,WeatherCatV1.15B25,2013-06-16 06:00:00,
2013-06-15 23:05:00,62.2,43.3,29.86,ESE,119,0.0,0.0,50,0.00,,,0.00,WeatherCatV1.15B25,2013-06-16 06:05:00,
2013-06-15 23:10:00,61.8,43.0,29.86,ESE,119,0.0,0.0,50,0.00,,,0.00,WeatherCatV1.15B25,2013-06-16 06:10:00,
2013-06-15 23:15:00,61.5,43.2,29.87,ESE,119,0.0,0.0,51,0.00,,,0.00,WeatherCatV1.15B25,2013-06-16 06:15:00,
2013-06-15 23:20:00,61.0,42.7,29.87,ESE,119,0.0,0.0,51,0.00,,,0.00,WeatherCatV1.15B25,2013-06-16 06:20:00,
2013-06-15 23:25:00,60.8,43.6,29.87,ESE,119,0.0,0.0,53,0.00,,,0.00,WeatherCatV1.15B25,2013-06-16 06:25:00,
2013-06-15 23:30:00,60.8,43.6,29.87,ESE,119,0.0,0.0,53,0.00,,,0.00,WeatherCatV1.15B25,2013-06-16 06:30:00,
2013-06-15 23:35:00,60.9,43.6,29.87,ESE,119,0.0,0.0,53,0.00,,,0.00,WeatherCatV1.15B25,2013-06-16 06:35:00,
2013-06-15 23:40:00,60.9,43.6,29.87,ESE,119,0.0,0.0,53,0.00,,,0.00,WeatherCatV1.15B25,2013-06-16 06:40:00,
2013-06-15 23:45:00,60.8,43.1,29.87,ESE,119,0.0,0.0,52,0.00,,,0.00,WeatherCatV1.15B25,2013-06-16 06:45:00,
2013-06-15 23:50:00,60.9,43.6,29.87,ESE,119,0.0,0.0,53,0.00,,,0.00,WeatherCatV1.15B25,2013-06-16 06:50:00,
2013-06-15 23:55:00,61.0,43.7,29.87,ESE,119,0.0,0.0,53,0.00,,,0.00,WeatherCatV1.15B25,2013-06-16 06:55:00,